Time,TemperatureF,DewpointF,PressureIn,WindDirection,WindDirectionDegrees,WindSpeedMPH,WindSpeedGustMPH,Humidity,HourlyPrecipIn,Conditions,Clouds,dailyrainin,SoftwareType,DateUTC
2013-01-29 08:21:00,24.6,22.1,30.06,NE,45,0.0,0.0,90,0.00,,,0.00,WUHU216HW,2013-01-29 07:21:00,
2013-01-29 08:25:00,24.6,22.1,30.06,ENE,68,0.0,0.0,90,0.00,,,0.00,WUHU216HW,2013-01-29 07:25:00,
2013-01-29 08:30:00,24.6,22.1,30.06,NE,45,0.0,0.0,90,0.00,,,0.00,WUHU216HW,2013-01-29 07:30:00,
2013-01-29 08:35:00,24.6,22.1,30.05,ENE,68,0.0,0.0,90,0.00,,,0.00,WUHU216HW,2013-01-29 07:35:00,
2013-01-29 08:40:00,24.4,21.9,30.06,ENE,68,0.0,0.0,90,0.00,,,0.00,WUHU216HW,2013-01-29 07:40:00,
2013-01-29 08:45:00,24.4,21.9,30.06,NE,45,0.0,0.0,90,0.00,,,0.00,WUHU216HW,2013-01-29 07:45:00,
2013-01-29 08:51:00,24.4,21.9,30.06,NNE,23,0.0,0.0,90,0.00,,,0.00,WUHU216HW,2013-01-29 07:51:00,
2013-01-29 08:56:00,24.6,22.1,30.06,SE,135,0.0,0.0,90,0.00,,,0.00,WUHU216HW,2013-01-29 07:56:00,
2013-01-29 09:01:00,25.3,22.8,30.06,SE,135,0.0,0.0,90,0.00,,,0.00,WUHU216HW,2013-01-29 08:01:00,
2013-01-29 09:06:00,25.3,22.8,30.07,ESE,113,0.0,0.8,90,0.00,,,0.00,WUHU216HW,2013-01-29 08:06:00,
2013-01-29 09:11:00,25.3,23.0,30.07,SE,135,0.0,0.8,90,0.00,,,0.00,WUHU216HW,2013-01-29 08:11:00,
2013-01-29 09:16:00,25.5,23.0,30.07,WSW,248,0.0,0.0,90,0.00,,,0.00,WUHU216HW,2013-01-29 08:16:00,
2013-01-29 09:21:00,26.2,23.7,30.07,North,0,0.0,0.0,90,0.00,,,0.00,WUHU216HW,2013-01-29 08:21:00,
2013-01-29 09:26:00,26.2,23.7,30.07,North,0,0.0,0.0,90,0.00,,,0.00,WUHU216HW,2013-01-29 08:26:00,
2013-01-29 09:31:00,26.4,23.9,30.07,North,0,0.0,0.0,90,0.00,,,0.00,WUHU216HW,2013-01-29 08:31:00,
2013-01-29 09:36:00,26.6,24.0,30.06,ENE,68,0.0,0.0,90,0.00,,,0.00,WUHU216HW,2013-01-29 08:36:00,
2013-01-29 09:41:00,27.1,24.6,30.07,ENE,68,0.0,0.0,90,0.00,,,0.00,WUHU216HW,2013-01-29 08:41:00,
2013-01-29 09:46:00,27.5,24.9,30.07,ESE,113,0.0,0.0,90,0.00,,,0.00,WUHU216HW,2013-01-29 08:46:00,
2013-01-29 09:51:00,28.0,25.5,30.06,ESE,113,0.0,0.0,90,0.00,,,0.00,WUHU216HW,2013-01-29 08:51:00,
2013-01-29 09:56:00,28.0,25.5,30.06,ESE,113,0.0,0.0,90,0.00,,,0.00,WUHU216HW,2013-01-29 08:56:00,
2013-01-29 10:01:00,28.5,26.0,30.06,ESE,113,0.0,0.0,90,0.00,,,0.00,WUHU216HW,2013-01-29 09:01:00,
2013-01-29 10:06:00,29.1,26.6,30.07,ESE,113,2.0,2.0,90,0.00,,,0.00,WUHU216HW,2013-01-29 09:06:00,
2013-01-29 10:11:00,30.0,27.5,30.06,ESE,113,0.0,2.0,90,0.00,,,0.00,WUHU216HW,2013-01-29 09:11:00,
2013-01-29 10:16:00,30.0,27.5,30.07,East,90,0.0,1.3,90,0.00,,,0.00,WUHU216HW,2013-01-29 09:16:00,
2013-01-29 10:21:00,30.0,27.5,30.07,ENE,68,0.0,0.0,90,0.00,,,0.00,WUHU216HW,2013-01-29 09:21:00,
2013-01-29 10:26:00,30.5,28.0,30.06,ENE,68,0.0,0.0,90,0.02,,,0.02,WUHU216HW,2013-01-29 09:26:00,
2013-01-29 10:31:00,30.5,28.0,30.06,North,0,0.0,0.0,90,0.02,,,0.02,WUHU216HW,2013-01-29 09:31:00,
2013-01-29 10:36:00,30.7,27.9,30.06,SE,135,0.0,0.0,89,0.02,,,0.02,WUHU216HW,2013-01-29 09:36:00,
2013-01-29 10:41:00,30.5,27.7,30.06,NE,45,0.0,0.0,89,0.02,,,0.02,WUHU216HW,2013-01-29 09:41:00,
2013-01-29 10:46:00,30.7,27.9,30.06,ESE,113,0.0,0.0,89,0.02,,,0.02,WUHU216HW,2013-01-29 09:46:00,
2013-01-29 10:51:00,31.1,28.2,30.05,SE,135,0.0,0.0,89,0.02,,,0.02,WUHU216HW,2013-01-29 09:51:00,
2013-01-29 10:56:00,30.7,27.6,30.06,East,90,0.0,0.0,88,0.02,,,0.02,WUHU216HW,2013-01-29 09:56:00,
2013-01-29 11:01:00,30.9,27.8,30.06,North,0,0.0,0.0,88,0.02,,,0.02,WUHU216HW,2013-01-29 10:01:00,
2013-01-29 11:06:00,30.9,27.8,30.05,North,0,1.1,1.1,88,0.02,,,0.02,WUHU216HW,2013-01-29 10:06:00,
2013-01-29 11:11:00,30.9,27.8,30.06,ENE,68,0.0,1.1,88,0.02,,,0.02,WUHU216HW,2013-01-29 10:11:00,
2013-01-29 11:16:00,31.1,28.0,30.05,North,0,0.0,0.0,88,0.02,,,0.02,WUHU216HW,2013-01-29 10:16:00,
2013-01-29 11:21:00,31.2,28.1,30.05,ENE,68,0.0,0.0,88,0.00,,,0.02,WUHU216HW,2013-01-29 10:21:00,
2013-01-29 11:26:00,31.6,28.5,30.05,SE,135,0.0,0.0,88,0.02,,,0.05,WUHU216HW,2013-01-29 10:26:00,
2013-01-29 11:31:00,32.0,28.9,30.04,NNE,23,0.0,0.0,88,0.02,,,0.05,WUHU216HW,2013-01-29 10:31:00,
2013-01-29 11:36:00,32.1,29.0,30.04,NW,315,0.0,0.0,88,0.02,,,0.05,WUHU216HW,2013-01-29 10:36:00,
2013-01-29 11:41:00,31.8,28.4,30.04,NNW,338,0.0,1.1,87,0.02,,,0.05,WUHU216HW,2013-01-29 10:41:00,
2013-01-29 11:46:00,32.1,28.7,30.04,North,0,0.0,1.1,87,0.02,,,0.05,WUHU216HW,2013-01-29 10:46:00,
2013-01-29 11:51:00,32.5,29.1,30.04,NE,45,0.0,0.0,87,0.02,,,0.05,WUHU216HW,2013-01-29 10:51:00,
2013-01-29 11:56:00,32.7,29.2,30.04,ENE,68,0.0,0.0,87,0.02,,,0.05,WUHU216HW,2013-01-29 10:56:00,
2013-01-29 12:01:00,32.7,29.2,30.04,North,0,0.0,0.0,87,0.02,,,0.05,WUHU216HW,2013-01-29 11:01:00,
2013-01-29 14:55:00,35.4,31.3,29.99,WNW,293,0.0,0.0,86,0.02,,,0.05,WUHU216HW,2013-01-29 13:55:00,
2013-01-29 15:05:00,35.7,31.9,29.99,WSW,248,0.0,1.5,86,0.02,,,0.11,WUHU216HW,2013-01-29 14:05:00,
2013-01-29 15:10:00,35.9,32.1,29.99,SSE,158,0.0,0.0,86,0.00,,,0.11,WUHU216HW,2013-01-29 14:10:00,
2013-01-29 15:15:00,35.7,31.9,29.99,SSE,158,0.0,0.0,86,0.00,,,0.11,WUHU216HW,2013-01-29 14:15:00,
2013-01-29 15:20:00,35.7,31.9,29.98,SE,135,0.0,0.0,86,0.00,,,0.11,WUHU216HW,2013-01-29 14:20:00,
2013-01-29 15:25:00,35.7,31.9,29.98,East,90,0.0,0.0,86,0.00,,,0.11,WUHU216HW,2013-01-29 14:25:00,
2013-01-29 15:30:00,35.7,31.7,29.98,ENE,68,0.0,0.0,86,0.00,,,0.11,WUHU216HW,2013-01-29 14:30:00,
2013-01-29 15:35:00,35.6,31.9,29.99,WSW,248,2.0,2.0,86,0.00,,,0.11,WUHU216HW,2013-01-29 14:35:00,
2013-01-29 15:40:00,35.6,31.7,29.98,WNW,293,2.0,2.0,86,0.00,,,0.11,WUHU216HW,2013-01-29 14:40:00,
2013-01-29 15:46:00,35.7,31.9,29.97,SW,225,0.0,2.0,86,0.00,,,0.11,WUHU216HW,2013-01-29 14:46:00,
2013-01-29 15:51:00,35.4,31.5,29.97,WSW,248,0.0,1.5,86,0.00,,,0.11,WUHU216HW,2013-01-29 14:51:00,
2013-01-29 15:56:00,35.4,31.5,29.98,North,0,0.0,0.8,86,0.00,,,0.11,WUHU216HW,2013-01-29 14:56:00,
2013-01-29 16:01:00,35.4,31.5,29.98,NW,315,0.0,3.1,86,0.00,,,0.11,WUHU216HW,2013-01-29 15:01:00,
2013-01-29 16:06:00,35.2,31.3,29.98,WNW,293,0.0,3.1,86,0.00,,,0.11,WUHU216HW,2013-01-29 15:06:00,
2013-01-29 16:11:00,35.2,31.3,29.99,WNW,293,0.0,2.0,86,0.00,,,0.11,WUHU216HW,2013-01-29 15:11:00,
2013-01-29 16:16:00,35.0,31.3,29.99,West,270,0.0,0.0,86,0.00,,,0.11,WUHU216HW,2013-01-29 15:16:00,
2013-01-29 16:21:00,34.8,31.3,29.98,NW,315,2.2,2.2,87,0.00,,,0.11,WUHU216HW,2013-01-29 15:21:00,
2013-01-29 16:26:00,34.8,31.3,29.99,NE,45,0.0,2.2,87,0.00,,,0.11,WUHU216HW,2013-01-29 15:26:00,
2013-01-29 16:31:00,34.7,31.1,29.99,West,270,0.0,0.0,87,0.00,,,0.11,WUHU216HW,2013-01-29 15:31:00,
2013-01-29 16:36:00,34.8,31.1,30.00,WNW,293,0.0,0.0,87,0.00,,,0.11,WUHU216HW,2013-01-29 15:36:00,
2013-01-29 16:41:00,34.7,31.1,30.00,WNW,293,0.0,0.0,87,0.00,,,0.11,WUHU216HW,2013-01-29 15:41:00,
2013-01-29 16:46:00,34.8,31.3,30.00,NE,45,0.0,0.0,87,0.00,,,0.11,WUHU216HW,2013-01-29 15:46:00,
2013-01-29 16:51:00,34.7,31.4,30.01,SSE,158,0.0,0.0,88,0.00,,,0.11,WUHU216HW,2013-01-29 15:51:00,
2013-01-29 16:56:00,34.8,31.4,30.01,SE,135,2.2,2.2,88,0.00,,,0.11,WUHU216HW,2013-01-29 15:56:00,
2013-01-29 17:01:00,34.8,31.6,30.01,East,90,0.0,2.2,88,0.00,,,0.11,WUHU216HW,2013-01-29 16:01:00,
2013-01-29 17:06:00,34.7,31.4,30.01,SSW,203,0.0,0.0,88,0.00,,,0.11,WUHU216HW,2013-01-29 16:06:00,
2013-01-29 17:11:00,34.7,31.4,30.01,NNW,338,0.0,0.0,88,0.00,,,0.11,WUHU216HW,2013-01-29 16:11:00,
2013-01-29 17:16:00,34.7,31.4,30.00,West,270,0.0,0.0,88,0.00,,,0.11,WUHU216HW,2013-01-29 16:16:00,
2013-01-29 17:21:00,34.7,31.4,30.00,WSW,248,0.0,0.0,88,0.00,,,0.11,WUHU216HW,2013-01-29 16:21:00,
2013-01-29 17:26:00,34.8,31.6,30.00,South,180,0.0,0.0,88,0.00,,,0.11,WUHU216HW,2013-01-29 16:26:00,
2013-01-29 17:31:00,34.8,31.6,30.00,East,90,0.0,0.0,88,0.00,,,0.11,WUHU216HW,2013-01-29 16:31:00,
2013-01-29 17:36:00,34.5,31.2,30.01,SSE,158,0.0,0.0,88,0.00,,,0.11,WUHU216HW,2013-01-29 16:36:00,
2013-01-29 17:41:00,34.3,31.0,30.01,South,180,0.0,0.0,88,0.00,,,0.11,WUHU216HW,2013-01-29 16:41:00,
2013-01-29 17:46:00,34.1,30.8,30.01,South,180,0.0,0.0,88,0.00,,,0.11,WUHU216HW,2013-01-29 16:46:00,
2013-01-29 17:51:00,33.9,30.7,30.01,South,180,2.0,2.0,88,0.00,,,0.11,WUHU216HW,2013-01-29 16:51:00,
2013-01-29 17:56:00,33.9,30.9,30.01,South,180,0.0,2.4,89,0.00,,,0.11,WUHU216HW,2013-01-29 16:56:00,
2013-01-29 18:01:00,33.9,30.9,30.02,South,180,0.0,2.4,89,0.02,,,0.13,WUHU216HW,2013-01-29 17:01:00,
2013-01-29 18:06:00,33.9,30.9,30.01,South,180,0.0,0.0,89,0.02,,,0.13,WUHU216HW,2013-01-29 17:06:00,
2013-01-29 18:11:00,33.8,30.8,30.01,South,180,0.0,0.0,89,0.02,,,0.13,WUHU216HW,2013-01-29 17:11:00,
2013-01-29 18:16:00,33.8,30.8,30.01,South,180,0.0,0.8,89,0.02,,,0.13,WUHU216HW,2013-01-29 17:16:00,
2013-01-29 18:21:00,34.1,31.1,30.01,WSW,248,0.0,0.8,89,0.02,,,0.13,WUHU216HW,2013-01-29 17:21:00,
2013-01-29 18:26:00,34.3,31.3,30.01,West,270,0.0,0.0,89,0.02,,,0.13,WUHU216HW,2013-01-29 17:26:00,
2013-01-29 18:31:00,34.3,31.3,30.02,WNW,293,0.0,0.0,89,0.02,,,0.13,WUHU216HW,2013-01-29 17:31:00,
2013-01-29 18:36:00,34.3,31.3,30.01,SW,225,0.0,0.0,89,0.02,,,0.13,WUHU216HW,2013-01-29 17:36:00,
2013-01-29 18:41:00,34.3,31.3,30.02,WNW,293,0.0,0.0,89,0.04,,,0.15,WUHU216HW,2013-01-29 17:41:00,
2013-01-29 18:46:00,34.5,31.8,30.01,WSW,248,0.0,0.0,90,0.04,,,0.15,WUHU216HW,2013-01-29 17:46:00,
2013-01-29 18:51:00,34.7,32.0,30.01,WSW,248,0.0,0.0,90,0.04,,,0.15,WUHU216HW,2013-01-29 17:51:00,
2013-01-29 18:56:00,34.7,32.0,30.01,West,270,0.0,0.0,90,0.04,,,0.15,WUHU216HW,2013-01-29 17:56:00,
2013-01-29 19:01:00,34.8,32.1,30.01,West,270,0.0,0.0,90,0.02,,,0.15,WUHU216HW,2013-01-29 18:01:00,
2013-01-29 19:06:00,34.8,32.1,30.01,West,270,0.0,0.0,90,0.02,,,0.15,WUHU216HW,2013-01-29 18:06:00,
2013-01-29 19:11:00,34.8,32.1,30.02,West,270,0.0,0.0,90,0.02,,,0.15,WUHU216HW,2013-01-29 18:11:00,
2013-01-29 19:16:00,35.2,32.5,30.02,WNW,293,0.0,0.0,90,0.02,,,0.15,WUHU216HW,2013-01-29 18:16:00,
2013-01-29 19:21:00,35.2,32.5,30.02,WNW,293,0.0,1.3,90,0.02,,,0.15,WUHU216HW,2013-01-29 18:21:00,
2013-01-29 19:26:00,35.4,32.7,30.02,West,270,0.0,2.0,90,0.02,,,0.15,WUHU216HW,2013-01-29 18:26:00,
2013-01-29 19:31:00,35.7,33.0,30.02,West,270,2.2,3.5,90,0.02,,,0.15,WUHU216HW,2013-01-29 18:31:00,
2013-01-29 19:36:00,35.7,33.0,30.02,West,270,0.0,3.5,90,0.00,,,0.15,WUHU216HW,2013-01-29 18:36:00,
2013-01-29 19:41:00,35.7,33.0,30.02,SSE,158,2.2,2.2,90,0.02,,,0.17,WUHU216HW,2013-01-29 18:41:00,
2013-01-29 19:46:00,35.7,33.0,30.02,West,270,0.0,2.4,90,0.02,,,0.17,WUHU216HW,2013-01-29 18:46:00,
2013-01-29 19:51:00,35.7,33.0,30.02,WNW,293,4.4,4.6,90,0.02,,,0.17,WUHU216HW,2013-01-29 18:51:00,
2013-01-29 19:56:00,35.9,33.2,30.02,WSW,248,0.0,4.6,90,0.02,,,0.17,WUHU216HW,2013-01-29 18:56:00,
2013-01-29 20:02:00,35.9,33.2,30.01,WSW,248,0.0,4.0,90,0.02,,,0.17,WUHU216HW,2013-01-29 19:02:00,
2013-01-29 20:07:00,35.9,33.2,30.02,WSW,248,1.1,4.4,90,0.02,,,0.17,WUHU216HW,2013-01-29 19:07:00,
2013-01-29 20:12:00,35.9,33.2,30.02,WNW,293,1.7,4.4,90,0.02,,,0.17,WUHU216HW,2013-01-29 19:12:00,
2013-01-29 20:17:00,35.9,33.2,30.02,West,270,1.7,3.8,90,0.02,,,0.17,WUHU216HW,2013-01-29 19:17:00,
2013-01-29 20:22:00,35.9,33.2,30.02,WNW,293,0.0,3.8,90,0.04,,,0.19,WUHU216HW,2013-01-29 19:22:00,
2013-01-29 20:27:00,35.7,33.0,30.01,West,270,0.0,2.0,90,0.04,,,0.19,WUHU216HW,2013-01-29 19:27:00,
2013-01-29 20:32:00,35.7,33.0,30.01,WSW,248,0.0,2.0,90,0.04,,,0.19,WUHU216HW,2013-01-29 19:32:00,
2013-01-29 20:37:00,35.9,33.2,30.01,West,270,0.0,4.2,90,0.02,,,0.19,WUHU216HW,2013-01-29 19:37:00,
2013-01-29 20:42:00,35.9,33.2,30.01,NW,315,0.0,4.6,90,0.02,,,0.19,WUHU216HW,2013-01-29 19:42:00,
2013-01-29 20:47:00,36.1,33.4,30.02,WNW,293,0.6,4.6,90,0.02,,,0.19,WUHU216HW,2013-01-29 19:47:00,